This is the latest recevied weather packets stored in our database for station/object 9M2MIN. If no packets are shown the sender has not sent any weather packets the latest 10 day(s).
| Time | Temp. | Humidity | Pressure | Rain* | Wind** | Luminosity | Snow |
|---|---|---|---|---|---|---|---|
| 1788160582 | 33.33° C | 60% | 1008.6 hPa | - | - | - | - |
| 1788159681 | 32.78° C | 58% | 1008.8 hPa | - | - | - | - |
| 1788158791 | 32.78° C | 59% | 1009.1 hPa | - | - | - | - |
| 1788157891 | 32.78° C | 60% | 1009.2 hPa | - | - | - | - |
| 1788156991 | 32.78° C | 59% | 1009.3 hPa | - | - | - | - |
| 1788156090 | 32.78° C | 60% | 1009.5 hPa | - | - | - | - |
| 1788155190 | 32.78° C | 59% | 1009.7 hPa | - | - | - | - |
| 1788154290 | 32.78° C | 58% | 1009.8 hPa | - | - | - | - |
| 1788153390 | 32.78° C | 59% | 1009.9 hPa | - | - | - | - |
| 1788152490 | 32.78° C | 59% | 1010.3 hPa | - | - | - | - |
| 1788151589 | 32.78° C | 60% | 1010.4 hPa | - | - | - | - |
| 1788150689 | 32.22° C | 63% | 1010.7 hPa | - | - | - | - |
| 1788149788 | 32.22° C | 61% | 1010.8 hPa | - | - | - | - |
| 1788148888 | 32.22° C | 61% | 1010.9 hPa | - | - | - | - |
| 1788147995 | 32.22° C | 63% | 1011.1 hPa | - | - | - | - |
| 1788147095 | 32.22° C | 65% | 1011.3 hPa | - | - | - | - |
| 1788146196 | 32.22° C | 65% | 1011.5 hPa | - | - | - | - |
| 1788145294 | 32.22° C | 66% | 1011.7 hPa | - | - | - | - |
| 1788144394 | 32.22° C | 65% | 1011.6 hPa | - | - | - | - |
| 1788143494 | 32.22° C | 67% | 1011.8 hPa | - | - | - | - |
| 1788142595 | 31.67° C | 67% | 1011.8 hPa | - | - | - | - |
| 1788141692 | 31.67° C | 68% | 1011.8 hPa | - | - | - | - |
| 1788140792 | 31.67° C | 68% | 1011.8 hPa | - | - | - | - |
| 1788139892 | 31.67° C | 68% | 1011.8 hPa | - | - | - | - |
| 1788138992 | 31.67° C | 67% | 1011.8 hPa | - | - | - | - |
* Rain since midnight (hover to see other rain measurements)
** Current wind speed in m/s (hover to see current wind gust speed)